This demonstration page uses our WeatherBlox Daily Observations layout. Learn more.

Left ArrowRight Arrow

Hourly Observations for December 15, 2016

Temp ( °F °C ) Dew Point ( °F °C ) Humidity (%) Winds ( mph kmh ) Pressure ( in mb ) Visibility ( mi km ) Precip ( " mm )
12:00 am 00:00 Clear 10 -12 -2 -19 56 56 WNW 20 31 30.36 1028 10 16 N/A
12:19 am 00:19 Clear 9 -13 -2 -19 61 61 WNW 18 30 30.36 1028 10 16 N/A
12:39 am 00:39 Clear 9 -13 -2 -19 61 61 WNW 23 37 30.36 1028 10 16 N/A
12:59 am 00:59 Clear 9 -13 -4 -20 56 56 WNW 15 24 30.36 1028 10 16 N/A
1:19 am 01:19 Clear 9 -13 -2 -19 61 61 W 16 26 30.36 1028 10 16 N/A
1:40 am 01:40 Clear 7 -14 -2 -19 66 66 WNW 17 28 30.36 1028 10 16 N/A
1:59 am 01:59 Clear 7 -14 -4 -20 61 61 WNW 16 26 30.36 1028 10 16 N/A
2:19 am 02:19 Clear 7 -14 -4 -20 61 61 WNW 15 24 30.39 1029 10 16 N/A
2:39 am 02:39 Clear 7 -14 -4 -20 61 61 WNW 18 30 30.39 1029 10 16 N/A
2:59 am 02:59 Clear 7 -14 -4 -20 61 61 WNW 15 24 30.39 1029 10 16 N/A
3:19 am 03:19 Clear 5 -15 -4 -20 66 66 WNW 12 19 30.39 1029 10 16 N/A
3:39 am 03:39 Clear 5 -15 -6 -21 60 60 WNW 12 19 30.42 1030 10 16 N/A
3:59 am 03:59 Clear 5 -15 -4 -20 66 66 WNW 14 22 30.42 1030 10 16 N/A
4:19 am 04:19 Clear 5 -15 -6 -21 60 60 WNW 12 19 30.42 1030 10 16 N/A
4:39 am 04:39 Clear 5 -15 -4 -20 66 66 WNW 12 19 30.42 1030 10 16 N/A
4:59 am 04:59 Clear 5 -15 -6 -21 60 60 WNW 12 19 30.42 1030 10 16 N/A
5:19 am 05:19 Clear 5 -15 -4 -20 66 66 WNW 15 24 30.42 1030 10 16 N/A
5:39 am 05:39 Clear 5 -15 -4 -20 66 66 WNW 13 20 30.42 1030 10 16 N/A
5:59 am 05:59 Clear 3 -16 -6 -21 66 66 WNW 14 22 30.42 1030 10 16 N/A
6:19 am 06:19 Clear 3 -16 -6 -21 66 66 WNW 9 15 30.42 1030 10 16 N/A
6:40 am 06:40 Clear 3 -16 -6 -21 66 66 WNW 10 17 30.45 1031 10 16 N/A
6:59 am 06:59 Clear 1 -17 -6 -21 71 71 W 9 15 30.45 1031 10 16 N/A
7:20 am 07:20 Clear 3 -16 -6 -21 66 66 W 10 17 30.45 1031 10 16 N/A
7:39 am 07:39 Clear 1 -17 -6 -21 71 71 WNW 9 15 30.48 1032 10 16 N/A
7:59 am 07:59 Sunny 3 -16 -6 -21 66 66 WNW 10 17 30.48 1032 10 16 N/A
8:20 am 08:20 Sunny 1 -17 -6 -21 71 71 WNW 10 17 30.48 1032 10 16 N/A
8:39 am 08:39 Sunny 3 -16 -6 -21 66 66 WNW 7 11 30.48 1032 10 16 N/A
8:59 am 08:59 Sunny 3 -16 -6 -21 66 66 WNW 8 13 30.48 1032 10 16 N/A
9:20 am 09:20 Sunny 5 -15 -6 -21 60 60 WNW 14 22 30.50 1033 10 16 N/A
9:39 am 09:39 Sunny 5 -15 -6 -21 60 60 WNW 9 15 30.50 1033 10 16 N/A
9:59 am 09:59 Sunny 5 -15 -4 -20 66 66 W 10 17 30.53 1034 10 16 N/A
10:20 am 10:20 Sunny 7 -14 -4 -20 61 61 WNW 13 20 30.53 1034 10 16 N/A
10:39 am 10:39 Sunny 7 -14 -4 -20 61 61 W 12 19 30.53 1034 10 16 N/A
10:59 am 10:59 Sunny 9 -13 -4 -20 56 56 W 10 17 30.53 1034 10 16 N/A
11:20 am 11:20 Sunny 9 -13 -4 -20 56 56 W 8 13 30.53 1034 10 16 N/A
11:39 am 11:39 Sunny 10 -12 -4 -20 52 52 W 8 13 30.53 1034 10 16 N/A
11:59 am 11:59 Sunny 10 -12 -4 -20 52 52 W 9 15 30.53 1034 10 16 N/A
12:20 pm 12:20 Sunny 10 -12 -4 -20 52 52 W 9 15 30.53 1034 10 16 N/A
12:39 pm 12:39 Sunny 10 -12 -2 -19 56 56 W 10 17 30.53 1034 10 16 N/A
12:59 pm 12:59 Sunny 12 -11 -2 -19 52 52 WSW 10 17 30.53 1034 10 16 N/A
1:20 pm 13:20 Sunny 12 -11 -2 -19 52 52 W 10 17 30.53 1034 10 16 N/A
1:39 pm 13:39 Sunny 12 -11 -4 -20 48 48 W 9 15 30.50 1033 10 16 N/A
1:59 pm 13:59 Sunny 12 -11 -4 -20 48 48 W 9 15 30.53 1034 10 16 N/A
2:20 pm 14:20 Sunny 12 -11 -4 -20 48 48 W 8 13 30.53 1034 10 16 N/A
2:39 pm 14:39 Sunny 12 -11 -4 -20 48 48 W 9 15 30.53 1034 10 16 N/A
2:59 pm 14:59 Sunny 12 -11 -4 -20 48 48 W 9 15 30.53 1034 10 16 N/A
3:20 pm 15:20 Sunny 14 -10 -2 -19 48 48 W 12 19 30.53 1034 10 16 N/A
3:39 pm 15:39 Sunny 14 -10 -2 -19 48 48 W 9 15 30.53 1034 10 16 N/A
3:59 pm 15:59 Sunny 12 -11 -4 -20 48 48 W 9 15 30.53 1034 10 16 N/A
4:20 pm 16:20 Sunny 12 -11 -4 -20 48 48 W 8 13 30.53 1034 10 16 N/A
4:39 pm 16:39 Sunny 10 -12 -4 -20 52 52 W 7 11 30.53 1034 10 16 N/A
5:00 pm 17:00 Sunny 10 -12 -6 -21 47 47 NW 6 9 30.53 1034 10 16 N/A
5:19 pm 17:19 Sunny 9 -13 -6 -21 51 51 WNW 6 9 30.53 1034 10 16 N/A
5:39 pm 17:39 Clear 7 -14 -6 -21 56 56 W 6 9 30.53 1034 10 16 N/A
6:00 pm 18:00 Clear 5 -15 -4 -20 66 66 W 5 7 30.53 1034 10 16 N/A
6:19 pm 18:19 Clear 7 -14 -4 -20 61 61 W 5 7 30.53 1034 10 16 N/A
6:39 pm 18:39 Clear 7 -14 -6 -21 56 56 WSW 3 6 30.50 1033 10 16 N/A
7:00 pm 19:00 Clear 7 -14 -4 -20 61 61 W 3 6 30.50 1033 10 16 N/A
7:19 pm 19:19 Clear 7 -14 -4 -20 61 61 WSW 3 6 30.50 1033 10 16 N/A
7:39 pm 19:39 Clear 3 -16 -4 -20 72 72 S 3 6 30.50 1033 10 16 N/A
8:00 pm 20:00 Clear 3 -16 -6 -21 66 66 S 5 7 30.50 1033 10 16 N/A
8:19 pm 20:19 Clear 5 -15 -4 -20 66 66 S 3 6 30.50 1033 10 16 N/A
8:39 pm 20:39 Clear 1 -17 -4 -20 78 78 S 3 6 30.53 1034 10 16 N/A
9:00 pm 21:00 Clear 3 -16 -4 -20 72 72 N N/A 30.50 1033 10 16 N/A
9:19 pm 21:19 Clear 3 -16 -4 -20 72 72 N N/A 30.50 1033 10 16 N/A
9:40 pm 21:40 Clear 3 -16 N/A 85 85 N N/A 30.50 1033 10 16 N/A
9:59 pm 21:59 Clear 7 -14 N/A 72 72 S 3 6 30.48 1032 10 16 N/A
10:19 pm 22:19 Clear 7 -14 N/A 72 72 S 3 6 30.48 1032 10 16 N/A
10:40 pm 22:40 Clear 9 -13 1 -17 72 72 N N/A 30.50 1033 10 16 N/A
10:59 pm 22:59 Clear 9 -13 1 -17 72 72 N N/A 30.50 1033 10 16 N/A
11:19 pm 23:19 Clear 9 -13 1 -17 72 72 N N/A 30.48 1032 10 16 N/A
11:40 pm 23:40 Partly Cloudy 9 -13 1 -17 72 72 N N/A 30.48 1032 10 16 N/A
11:59 pm 23:59 Partly Cloudy 10 -12 3 -16 72 72 N N/A 30.50 1033 10 16 N/A

Powered by AerisWeather